Location: B?dimalle
(17.1788°N, 80.5377°E)
Time: 09:03:09
(UTC+00:00)

Courier 1B Rocket - Pass Details

Date: 14 December 2025
Orbit: 920 x 1201 km, 28.2° (Epoch: 25 January)

Event Time Altitude Azimuth Distance (km) Brightness Sun altitude
Rises 15:16:42 0° 253° (WSW) 4,081 9.0 -43.8°
Reaches altitude 10° 15:19:34 10° 255° (WSW) 3,124 8.2 -44.5°
Enters shadow 15:23:19 31° 263° (W) 1,958 6.8 -45.3°
